Time,TemperatureF,DewpointF,PressureIn,WindDirection,WindDirectionDegrees,WindSpeedMPH,WindSpeedGustMPH,Humidity,HourlyPrecipIn,Conditions,Clouds,dailyrainin,SoftwareType,DateUTC
2013-05-10 00:03:00,61.0,-99.9,-100.00,WSW,251,5.0,7.0,-999,0.00,,,0.61,,2013-05-10 05:03:00,
2013-05-10 00:12:00,61.0,-99.9,-100.00,WSW,251,5.0,7.0,-999,0.00,,,0.61,,2013-05-10 05:12:00,
2013-05-10 00:22:00,61.0,-99.9,-100.00,WSW,251,5.0,7.0,-999,0.00,,,0.61,,2013-05-10 05:22:00,
2013-05-10 00:32:00,61.0,-99.9,-100.00,WSW,241,5.0,6.0,-999,0.00,,,0.61,,2013-05-10 05:32:00,
2013-05-10 00:42:00,61.0,-99.9,-100.00,WSW,241,5.0,6.0,-999,0.00,,,0.61,,2013-05-10 05:42:00,
2013-05-10 00:52:00,61.0,-99.9,-100.00,WSW,241,5.0,6.0,-999,0.00,,,0.61,,2013-05-10 05:52:00,
2013-05-10 01:02:00,61.0,-99.9,-100.00,WSW,245,4.0,5.0,-999,0.00,,,0.61,,2013-05-10 06:02:00,
2013-05-10 01:12:00,61.0,-99.9,-100.00,WSW,245,4.0,5.0,-999,0.00,,,0.61,,2013-05-10 06:12:00,
2013-05-10 01:22:00,61.0,-99.9,-100.00,WSW,245,4.0,5.0,-999,0.00,,,0.61,,2013-05-10 06:22:00,
2013-05-10 01:30:00,60.0,-99.9,-100.00,West,274,4.0,6.0,-999,0.00,,,0.59,,2013-05-10 06:30:00,
2013-05-10 01:32:00,60.0,-99.9,-100.00,WSW,244,6.0,7.0,-999,0.00,,,0.61,,2013-05-10 06:32:00,
2013-05-10 01:42:00,60.0,-99.9,-100.00,WSW,244,6.0,7.0,-999,0.00,,,0.61,,2013-05-10 06:42:00,
2013-05-10 01:52:00,60.0,-99.9,-100.00,WSW,244,6.0,7.0,-999,0.00,,,0.61,,2013-05-10 06:52:00,
2013-05-10 02:02:00,60.0,-99.9,-100.00,West,274,4.0,6.0,-999,0.00,,,0.59,,2013-05-10 07:02:00,
2013-05-10 02:12:00,60.0,-99.9,-100.00,West,274,4.0,6.0,-999,0.00,,,0.59,,2013-05-10 07:12:00,
2013-05-10 02:22:00,60.0,-99.9,-100.00,West,274,4.0,6.0,-999,0.00,,,0.59,,2013-05-10 07:22:00,
2013-05-10 03:02:00,55.0,-99.9,-100.00,NNW,343,13.0,20.0,-999,0.01,,,0.59,,2013-05-10 08:02:00,
2013-05-10 03:12:00,55.0,-99.9,-100.00,NNW,343,13.0,20.0,-999,0.01,,,0.59,,2013-05-10 08:12:00,
2013-05-10 03:22:00,55.0,-99.9,-100.00,NNW,343,13.0,20.0,-999,0.01,,,0.59,,2013-05-10 08:22:00,
2013-05-10 03:33:00,54.0,-99.9,-100.00,North,5,9.0,13.0,-999,0.01,,,0.59,,2013-05-10 08:33:00,
2013-05-10 03:42:00,54.0,-99.9,-100.00,North,5,9.0,13.0,-999,0.01,,,0.59,,2013-05-10 08:42:00,
2013-05-10 03:52:00,54.0,-99.9,-100.00,North,5,9.0,13.0,-999,0.01,,,0.59,,2013-05-10 08:52:00,
2013-05-10 04:02:00,53.0,-99.9,-100.00,North,10,7.0,9.0,-999,0.00,,,0.59,,2013-05-10 09:02:00,
2013-05-10 04:11:00,53.0,-99.9,-100.00,North,10,7.0,9.0,-999,0.00,,,0.59,,2013-05-10 09:11:00,
2013-05-10 04:22:00,53.0,-99.9,-100.00,North,10,7.0,9.0,-999,0.00,,,0.59,,2013-05-10 09:22:00,
2013-05-10 04:33:00,52.0,-99.9,-100.00,NNE,25,6.0,10.0,-999,0.00,,,0.59,,2013-05-10 09:33:00,
2013-05-10 04:43:00,52.0,-99.9,-100.00,NNE,25,6.0,10.0,-999,0.00,,,0.59,,2013-05-10 09:43:00,
2013-05-10 04:53:00,52.0,-99.9,-100.00,NNE,25,6.0,10.0,-999,0.00,,,0.59,,2013-05-10 09:53:00,
2013-05-10 05:03:00,52.0,-99.9,-100.00,NNE,28,9.0,12.0,-999,0.00,,,0.59,,2013-05-10 10:03:00,
2013-05-10 05:12:00,52.0,-99.9,-100.00,NNE,28,9.0,12.0,-999,0.00,,,0.59,,2013-05-10 10:12:00,
2013-05-10 05:23:00,52.0,-99.9,-100.00,NNE,28,9.0,12.0,-999,0.00,,,0.59,,2013-05-10 10:23:00,
2013-05-10 05:33:00,52.0,-99.9,-100.00,NNE,24,7.0,10.0,-999,0.00,,,0.59,,2013-05-10 10:33:00,
2013-05-10 05:42:00,52.0,-99.9,-100.00,NNE,24,7.0,10.0,-999,0.00,,,0.59,,2013-05-10 10:42:00,
2013-05-10 05:53:00,52.0,-99.9,-100.00,NNE,24,7.0,10.0,-999,0.00,,,0.59,,2013-05-10 10:53:00,
2013-05-10 06:02:00,51.0,-99.9,-100.00,North,6,7.0,10.0,-999,0.00,,,0.59,,2013-05-10 11:02:00,
2013-05-10 06:12:00,51.0,-99.9,-100.00,North,6,7.0,10.0,-999,0.00,,,0.59,,2013-05-10 11:12:00,
2013-05-10 06:22:00,51.0,-99.9,-100.00,North,6,7.0,10.0,-999,0.00,,,0.59,,2013-05-10 11:22:00,
2013-05-10 06:32:00,50.0,-99.9,-100.00,North,9,9.0,11.0,-999,0.00,,,0.59,,2013-05-10 11:32:00,
2013-05-10 06:42:00,50.0,-99.9,-100.00,North,9,9.0,11.0,-999,0.00,,,0.59,,2013-05-10 11:42:00,
2013-05-10 06:52:00,50.0,-99.9,-100.00,North,9,9.0,11.0,-999,0.00,,,0.59,,2013-05-10 11:52:00,
2013-05-10 07:02:00,49.0,-99.9,-100.00,North,352,9.0,11.0,-999,0.00,,,0.59,,2013-05-10 12:02:00,
2013-05-10 07:12:00,49.0,-99.9,-100.00,North,352,9.0,11.0,-999,0.00,,,0.59,,2013-05-10 12:12:00,
2013-05-10 07:22:00,49.0,-99.9,-100.00,North,352,9.0,11.0,-999,0.00,,,0.59,,2013-05-10 12:22:00,
2013-05-10 07:30:00,48.0,-99.9,-100.00,North,358,10.0,15.0,-999,0.01,,,0.60,,2013-05-10 12:30:00,
2013-05-10 07:32:00,49.0,-99.9,-100.00,North,360,10.0,14.0,-999,0.00,,,0.59,,2013-05-10 12:32:00,
2013-05-10 07:42:00,49.0,-99.9,-100.00,North,360,10.0,14.0,-999,0.00,,,0.59,,2013-05-10 12:42:00,
2013-05-10 07:52:00,49.0,-99.9,-100.00,North,360,10.0,14.0,-999,0.00,,,0.59,,2013-05-10 12:52:00,
2013-05-10 08:01:00,48.0,-99.9,-100.00,North,358,10.0,15.0,-999,0.01,,,0.60,,2013-05-10 13:01:00,
2013-05-10 08:11:00,48.0,-99.9,-100.00,North,358,10.0,15.0,-999,0.01,,,0.60,,2013-05-10 13:11:00,
2013-05-10 08:21:00,48.0,-99.9,-100.00,North,358,10.0,15.0,-999,0.01,,,0.60,,2013-05-10 13:21:00,
2013-05-10 09:02:00,49.0,-99.9,-100.00,North,7,10.0,13.0,-999,0.00,,,0.60,,2013-05-10 14:02:00,
2013-05-10 09:11:00,49.0,-99.9,-100.00,North,7,10.0,13.0,-999,0.00,,,0.60,,2013-05-10 14:11:00,
2013-05-10 09:22:00,49.0,-99.9,-100.00,North,7,10.0,13.0,-999,0.00,,,0.60,,2013-05-10 14:22:00,
2013-05-10 09:30:00,49.0,-99.9,-100.00,NNE,21,8.0,11.0,-999,0.00,,,0.60,,2013-05-10 14:30:00,
2013-05-10 09:32:00,49.0,-99.9,-100.00,NNE,14,10.0,14.0,-999,0.00,,,0.60,,2013-05-10 14:32:00,
2013-05-10 09:42:00,49.0,-99.9,-100.00,NNE,14,10.0,14.0,-999,0.00,,,0.60,,2013-05-10 14:42:00,
2013-05-10 09:52:00,49.0,-99.9,-100.00,NNE,14,10.0,14.0,-999,0.00,,,0.60,,2013-05-10 14:52:00,
2013-05-10 10:02:00,49.0,-99.9,-100.00,NNE,21,8.0,11.0,-999,0.00,,,0.60,,2013-05-10 15:02:00,
2013-05-10 10:21:00,-999.0,-99.9,-100.00,NNE,21,8.0,11.0,-999,0.00,,,0.60,,2013-05-10 15:21:00,
2013-05-10 11:02:00,49.0,-99.9,-100.00,NNW,336,7.0,11.0,-999,0.00,,,0.60,,2013-05-10 16:02:00,
2013-05-10 11:12:00,49.0,-99.9,-100.00,NNW,336,7.0,11.0,-999,0.00,,,0.60,,2013-05-10 16:12:00,
2013-05-10 11:23:00,49.0,-99.9,-100.00,NNW,336,7.0,11.0,-999,0.00,,,0.60,,2013-05-10 16:23:00,
2013-05-10 11:33:00,49.0,-99.9,-100.00,North,355,7.0,14.0,-999,0.00,,,0.60,,2013-05-10 16:33:00,
2013-05-10 11:43:00,49.0,-99.9,-100.00,North,355,7.0,14.0,-999,0.00,,,0.60,,2013-05-10 16:43:00,
2013-05-10 11:53:00,49.0,-99.9,-100.00,North,355,7.0,14.0,-999,0.00,,,0.60,,2013-05-10 16:53:00,
2013-05-10 12:02:00,50.0,-99.9,-100.00,North,357,8.0,12.0,-999,0.00,,,0.60,,2013-05-10 17:02:00,
2013-05-10 12:12:00,50.0,-99.9,-100.00,North,357,8.0,12.0,-999,0.00,,,0.60,,2013-05-10 17:12:00,
2013-05-10 12:22:00,50.0,-99.9,-100.00,North,357,8.0,12.0,-999,0.00,,,0.60,,2013-05-10 17:22:00,
2013-05-10 12:32:00,50.0,-99.9,-100.00,North,5,7.0,9.0,-999,0.00,,,0.60,,2013-05-10 17:32:00,
2013-05-10 12:42:00,50.0,-99.9,-100.00,North,5,7.0,9.0,-999,0.00,,,0.60,,2013-05-10 17:42:00,
2013-05-10 12:52:00,50.0,-99.9,-100.00,North,5,7.0,9.0,-999,0.00,,,0.60,,2013-05-10 17:52:00,
2013-05-10 13:11:00,-999.0,-99.9,-100.00,North,353,7.0,13.0,-999,0.00,,,0.60,,2013-05-10 18:11:00,
2013-05-10 13:22:00,50.0,-99.9,-100.00,North,353,7.0,13.0,-999,0.00,,,0.60,,2013-05-10 18:22:00,
2013-05-10 13:35:00,51.0,-99.9,-100.00,North,353,10.0,13.0,-999,0.00,,,0.60,,2013-05-10 18:35:00,
2013-05-10 13:43:00,51.0,-99.9,-100.00,North,353,10.0,13.0,-999,0.00,,,0.60,,2013-05-10 18:43:00,
2013-05-10 13:54:00,51.0,-99.9,-100.00,North,353,10.0,13.0,-999,0.00,,,0.60,,2013-05-10 18:54:00,
2013-05-10 14:02:00,50.0,-99.9,-100.00,NNE,15,7.0,11.0,-999,0.00,,,0.60,,2013-05-10 19:02:00,
2013-05-10 14:12:00,50.0,-99.9,-100.00,NNE,15,7.0,11.0,-999,0.00,,,0.60,,2013-05-10 19:12:00,
2013-05-10 14:22:00,50.0,-99.9,-100.00,NNE,15,7.0,11.0,-999,0.00,,,0.60,,2013-05-10 19:22:00,
2013-05-10 14:32:00,51.0,-99.9,-100.00,North,351,7.0,14.0,-999,0.00,,,0.59,,2013-05-10 19:32:00,
2013-05-10 14:42:00,51.0,-99.9,-100.00,North,351,7.0,14.0,-999,0.00,,,0.59,,2013-05-10 19:42:00,
2013-05-10 14:52:00,51.0,-99.9,-100.00,North,351,7.0,14.0,-999,0.00,,,0.59,,2013-05-10 19:52:00,
2013-05-10 15:02:00,51.0,-99.9,-100.00,North,10,8.0,15.0,-999,0.00,,,0.59,,2013-05-10 20:02:00,
2013-05-10 15:12:00,51.0,-99.9,-100.00,North,10,8.0,15.0,-999,0.00,,,0.59,,2013-05-10 20:12:00,
2013-05-10 15:22:00,51.0,-99.9,-100.00,North,10,8.0,15.0,-999,0.00,,,0.59,,2013-05-10 20:22:00,
2013-05-10 15:30:00,53.0,-99.9,-100.00,North,3,9.0,13.0,-999,0.00,,,0.42,,2013-05-10 20:30:00,
2013-05-10 15:32:00,52.0,-99.9,-100.00,North,359,6.0,8.0,-999,0.00,,,0.55,,2013-05-10 20:32:00,
2013-05-10 15:42:00,52.0,-99.9,-100.00,North,359,6.0,8.0,-999,0.00,,,0.55,,2013-05-10 20:42:00,
2013-05-10 15:52:00,52.0,-99.9,-100.00,North,359,6.0,8.0,-999,0.00,,,0.55,,2013-05-10 20:52:00,
2013-05-10 16:02:00,53.0,-99.9,-100.00,North,3,9.0,13.0,-999,0.00,,,0.42,,2013-05-10 21:02:00,
2013-05-10 16:11:00,53.0,-99.9,-100.00,North,3,9.0,13.0,-999,0.00,,,0.42,,2013-05-10 21:11:00,
2013-05-10 16:25:00,53.0,-99.9,-100.00,North,3,9.0,13.0,-999,0.00,,,0.42,,2013-05-10 21:25:00,
2013-05-10 17:03:00,54.0,-99.9,-100.00,NNE,16,7.0,13.0,-999,0.00,,,0.27,,2013-05-10 22:03:00,
2013-05-10 17:13:00,54.0,-99.9,-100.00,NNE,16,7.0,13.0,-999,0.00,,,0.27,,2013-05-10 22:13:00,
2013-05-10 17:22:00,54.0,-99.9,-100.00,NNE,16,7.0,13.0,-999,0.00,,,0.27,,2013-05-10 22:22:00,
2013-05-10 17:30:00,55.0,-99.9,-100.00,North,9,5.0,9.0,-999,0.00,,,0.27,,2013-05-10 22:30:00,
2013-05-10 17:32:00,55.0,-99.9,-100.00,NNE,18,8.0,11.0,-999,0.00,,,0.27,,2013-05-10 22:32:00,
2013-05-10 17:42:00,55.0,-99.9,-100.00,NNE,18,8.0,11.0,-999,0.00,,,0.27,,2013-05-10 22:42:00,
2013-05-10 17:53:00,55.0,-99.9,-100.00,NNE,18,8.0,11.0,-999,0.00,,,0.27,,2013-05-10 22:53:00,
2013-05-10 18:02:00,55.0,-99.9,-100.00,North,9,5.0,9.0,-999,0.00,,,0.27,,2013-05-10 23:02:00,
2013-05-10 18:12:00,55.0,-99.9,-100.00,North,9,5.0,9.0,-999,0.00,,,0.27,,2013-05-10 23:12:00,
2013-05-10 18:22:00,55.0,-99.9,-100.00,North,9,5.0,9.0,-999,0.00,,,0.27,,2013-05-10 23:22:00,
2013-05-10 18:30:00,55.0,-99.9,-100.00,NNE,19,5.0,8.0,-999,0.00,,,0.26,,2013-05-10 23:30:00,
2013-05-10 19:02:00,55.0,-99.9,-100.00,NNE,19,5.0,8.0,-999,0.00,,,0.26,,2013-05-11 00:02:00,
2013-05-10 19:11:00,55.0,-99.9,-100.00,NNE,19,5.0,8.0,-999,0.00,,,0.26,,2013-05-11 00:11:00,
2013-05-10 19:22:00,55.0,-99.9,-100.00,NNE,19,5.0,8.0,-999,0.00,,,0.26,,2013-05-11 00:22:00,
2013-05-10 20:01:00,55.0,-99.9,-100.00,NE,53,3.0,3.0,-999,0.00,,,0.08,,2013-05-11 01:01:00,
2013-05-10 20:11:00,55.0,-99.9,-100.00,NE,53,3.0,3.0,-999,0.00,,,0.08,,2013-05-11 01:11:00,
2013-05-10 20:22:00,55.0,-99.9,-100.00,NE,53,3.0,3.0,-999,0.00,,,0.08,,2013-05-11 01:22:00,
2013-05-10 20:32:00,55.0,-99.9,-100.00,ENE,63,3.0,4.0,-999,0.00,,,0.02,,2013-05-11 01:32:00,
2013-05-10 20:42:00,55.0,-99.9,-100.00,ENE,63,3.0,4.0,-999,0.00,,,0.02,,2013-05-11 01:42:00,
2013-05-10 20:52:00,55.0,-99.9,-100.00,ENE,63,3.0,4.0,-999,0.00,,,0.02,,2013-05-11 01:52:00,
2013-05-10 21:02:00,55.0,-99.9,-100.00,ESE,113,4.0,5.0,-999,0.00,,,0.02,,2013-05-11 02:02:00,
2013-05-10 21:12:00,55.0,-99.9,-100.00,ESE,113,4.0,5.0,-999,0.00,,,0.02,,2013-05-11 02:12:00,
2013-05-10 21:22:00,55.0,-99.9,-100.00,ESE,113,4.0,5.0,-999,0.00,,,0.02,,2013-05-11 02:22:00,
2013-05-10 21:32:00,54.0,-99.9,-100.00,ENE,73,3.0,5.0,-999,0.00,,,0.02,,2013-05-11 02:32:00,
2013-05-10 21:42:00,54.0,-99.9,-100.00,ENE,73,3.0,5.0,-999,0.00,,,0.02,,2013-05-11 02:42:00,
2013-05-10 21:52:00,54.0,-99.9,-100.00,ENE,73,3.0,5.0,-999,0.00,,,0.02,,2013-05-11 02:52:00,
2013-05-10 22:01:00,53.0,-99.9,-100.00,ESE,116,3.0,4.0,-999,0.00,,,0.02,,2013-05-11 03:01:00,
2013-05-10 22:11:00,53.0,-99.9,-100.00,ESE,116,3.0,4.0,-999,0.00,,,0.02,,2013-05-11 03:11:00,
2013-05-10 22:22:00,53.0,-99.9,-100.00,ESE,116,3.0,4.0,-999,0.00,,,0.02,,2013-05-11 03:22:00,
2013-05-10 22:33:00,53.0,-99.9,-100.00,NE,38,1.0,2.0,-999,0.00,,,0.02,,2013-05-11 03:33:00,
2013-05-10 22:43:00,53.0,-99.9,-100.00,NE,38,1.0,2.0,-999,0.00,,,0.02,,2013-05-11 03:43:00,
2013-05-10 22:53:00,53.0,-99.9,-100.00,NE,38,1.0,2.0,-999,0.00,,,0.02,,2013-05-11 03:53:00,
2013-05-10 23:03:00,52.0,-99.9,-100.00,SE,125,1.0,2.0,-999,0.00,,,0.02,,2013-05-11 04:03:00,
2013-05-10 23:12:00,52.0,-99.9,-100.00,SE,125,1.0,2.0,-999,0.00,,,0.02,,2013-05-11 04:12:00,
2013-05-10 23:23:00,52.0,-99.9,-100.00,SE,125,1.0,2.0,-999,0.00,,,0.02,,2013-05-11 04:23:00,
2013-05-10 23:33:00,51.0,-99.9,-100.00,East,96,3.0,4.0,-999,0.00,,,0.02,,2013-05-11 04:33:00,
2013-05-10 23:43:00,51.0,-99.9,-100.00,East,96,3.0,4.0,-999,0.00,,,0.02,,2013-05-11 04:43:00,
2013-05-10 23:52:00,51.0,-99.9,-100.00,East,96,3.0,4.0,-999,0.00,,,0.02,,2013-05-11 04:52:00,